Wind_Speed
15 14 14 14 13 13 13 13 14 14 14 14 14 14 14 15 16 17 18 19 20 20 20 20 19 18 17 16 15 14 13 12 13 11 8 9 15 21 23 25 27 28 28 28 27 26 24 21 19 17 16 14 11 10 10 8 6 7 7 4 2 4 6 6 6 4 1 5 7 8 5 2 1 2 2 2 2 3 3 2 2 4 9 10 12 13 10 11
15 15 15 15 14 14 14 13 13 14 14 14 14 13 14 14 14 15 16 16 18 18 19 20 19 19 18 18 16 16 15 13 14 10 7 11 15 19 22 26 28 28 29 29 28 26 24 22 20 18 17 15 13 12 11 10 8 7 8 5 4 7 9 9 8 6 5 4 6 9 9 7 5 4 3 2 2 1 2 1 2 3 8 9 10 14 13 12
15 15 15 15 15 15 15 14 14 14 14 14 14 14 14 13 14 14 14 15 15 16 18 19 20 19 19 19 17 17 16 15 14 10 10 12 13 15 19 23 26 27 27 28 26 26 25 22 21 20 19 17 15 14 12 10 9 8 10 7 5 7 9 10 9 7 7 8 6 7 9 10 8 6 5 3 2 2 2 2 3 2 3 6 7 11 13 13
16 16 16 16 16 16 16 16 15 14 14 14 14 15 14 14 14 13 13 13 13 14 15 18 18 19 20 20 18 17 17 17 14 11 12 12 12 15 18 20 22 24 25 27 27 26 26 25 24 22 21 19 17 15 14 12 9 9 10 5 6 8 9 9 8 6 6 8 7 4 6 9 8 7 6 5 2 3 6 7 7 6 4 3 4 6 11 12
18 18 17 16 16 16 16 16 16 16 15 15 15 15 15 15 14 14 13 13 12 13 13 15 17 17 19 19 19 18 17 16 13 12 12 12 13 15 17 20 21 23 25 27 28 28 28 28 27 25 24 21 19 17 15 12 10 12 10 6 7 9 10 9 6 4 6 7 9 9 7 8 9 10 8 7 2 4 7 7 8 8 6 3 2 3 8 12
20 19 19 18 17 17 17 17 17 17 16 16 16 16 16 15 15 15 14 13 12 12 12 13 15 16 17 19 19 18 17 14 9 9 10 10 11 14 17 20 22 25 27 28 29 30 31 31 30 28 26 22 20 18 15 12 13 14 11 8 8 9 10 8 3 4 6 7 9 11 9 7 9 12 13 10 3 4 4 5 6 7 7 3 1 2 6 10
21 21 21 20 19 19 18 18 17 17 17 16 17 17 17 16 16 15 14 14 12 12 12 13 14 15 16 18 17 19 19 14 10 12 12 8 9 13 16 20 23 26 28 30 31 31 32 32 31 29 26 24 21 19 16 14 15 16 13 12 11 9 11 8 3 4 4 6 9 11 10 9 8 10 13 12 7 3 2 4 4 4 6 6 4 3 5 8
23 22 22 22 21 21 20 19 19 18 17 17 17 18 18 17 16 15 14 14 13 12 12 12 13 14 15 15 16 18 14 9 13 19 16 11 11 12 14 18 23 26 28 29 30 30 30 32 32 29 28 25 22 20 18 17 17 17 15 12 12 12 11 10 9 5 4 6 9 12 10 10 10 10 8 7 10 10 6 5 5 3 2 5 6 6 8 10
23 24 24 23 23 23 22 22 20 19 18 18 19 19 18 18 16 15 14 14 14 13 12 13 13 14 15 14 16 14 6 9 15 18 16 13 14 13 13 16 21 26 27 27 27 28 29 31 31 30 28 26 23 22 20 20 20 18 17 15 15 15 14 13 11 7 7 8 10 12 9 10 11 12 10 7 11 15 11 10 8 6 4 2 5 7 9 12
24 24 24 24 24 24 24 24 22 21 20 20 20 20 19 17 16 16 15 15 15 15 13 13 13 14 14 13 14 8 7 14 17 17 16 15 15 14 13 15 19 24 26 26 28 28 28 28 29 30 28 26 25 24 23 22 21 19 19 18 17 17 16 15 13 10 9 9 10 11 10 11 11 12 12 9 11 14 14 14 13 10 8 5 4 6 10 13
23 23 24 24 24 25 25 25 24 23 22 22 21 21 19 17 17 17 16 16 16 16 15 13 13 13 13 14 12 7 10 16 16 17 18 16 16 16 15 14 16 21 24 26 27 26 25 25 27 29 29 27 26 25 25 24 21 20 21 20 19 19 18 17 15 13 11 10 9 11 13 14 12 10 9 8 10 12 15 17 16 15 12 9 7 6 11 15
23 23 23 23 24 24 25 25 25 24 23 23 23 22 20 18 18 18 18 18 17 17 16 15 14 13 14 12 6 7 14 17 17 18 18 17 18 18 17 15 15 18 21 24 25 24 24 26 28 29 29 28 27 25 24 25 23 23 23 22 21 21 20 19 17 15 14 12 10 12 16 18 17 12 9 11 11 12 15 19 19 18 15 13 10 8 10 16
23 23 23 23 23 24 24 25 24 24 24 24 24 23 22 20 19 19 18 18 18 18 18 17 16 14 14 8 5 11 14 15 19 20 18 18 18 18 18 17 16 16 18 20 21 23 25 27 28 29 28 26 26 24 22 22 24 25 24 24 24 23 22 21 18 17 16 14 13 13 16 21 21 15 14 14 13 13 16 19 21 20 18 16 13 10 10 14
24 24 24 24 24 24 25 25 24 23 23 24 25 24 23 22 21 20 19 19 19 19 19 19 17 17 15 6 9 16 16 16 20 20 19 19 18 19 19 18 18 19 19 18 17 19 23 26 27 27 28 27 26 25 22 20 20 22 24 25 26 24 24 23 20 20 18 15 15 15 19 24 22 17 16 16 15 14 16 19 22 22 19 17 16 13 11 12
25 25 25 25 25 26 26 26 25 24 23 23 24 24 24 23 23 21 20 20 19 20 20 20 19 19 17 8 10 16 17 18 18 18 20 20 20 20 19 18 19 20 21 21 19 18 20 23 28 29 30 29 28 26 24 22 20 19 18 19 24 25 25 25 21 21 20 17 16 16 21 26 23 19 19 18 17 15 16 19 22 23 21 18 17 15 13 11
25 25 25 25 26 27 27 27 26 25 24 24 23 24 24 24 24 23 22 21 21 21 21 21 20 21 19 12 13 17 19 19 16 19 23 22 22 21 20 19 20 22 23 24 23 22 23 23 27 30 30 30 31 29 27 26 25 23 19 18 22 24 25 25 21 20 18 17 18 18 22 26 23 21 20 19 18 16 16 19 22 23 23 20 18 17 15 13
26 26 26 26 26 27 28 27 27 26 25 25 24 24 24 24 24 24 24 23 23 22 22 23 22 22 21 15 15 16 19 21 20 22 24 24 24 24 24 23 22 23 24 26 26 26 26 26 28 30 32 33 32 32 28 27 29 28 25 23 23 22 23 25 22 19 16 15 18 19 24 28 25 21 20 20 19 18 17 19 21 23 23 21 19 18 17 15
27 27 27 27 27 29 29 29 28 27 26 25 25 24 24 24 24 24 24 24 25 24 23 24 23 23 21 16 17 16 17 21 23 24 24 26 27 27 26 25 24 25 26 28 29 29 29 29 30 31 35 37 36 37 33 29 34 33 29 27 25 22 23 26 24 20 16 15 18 20 25 28 23 20 21 22 21 19 18 19 22 23 22 21 20 19 18 17
29 28 28 28 28 30 31 30 29 28 26 26 25 25 25 24 24 25 24 25 25 25 24 24 23 22 18 13 15 18 19 20 23 25 26 27 29 30 29 27 26 27 29 30 30 32 32 31 33 36 40 43 43 44 41 36 36 35 31 29 27 25 26 28 26 23 19 18 20 23 25 26 24 22 22 22 21 20 19 20 23 25 24 22 21 20 19 18
31 30 29 29 29 30 32 31 31 30 28 27 26 25 25 24 24 25 24 24 25 26 26 27 26 23 19 16 13 16 19 21 24 27 28 29 30 32 33 31 30 30 31 33 32 33 33 35 40 44 46 46 44 43 41 38 36 33 30 30 30 30 30 31 28 24 21 21 25 26 27 28 26 23 22 20 19 19 19 20 23 26 26 24 22 20 20 18
34 33 32 31 30 30 32 32 32 32 30 28 27 26 26 26 25 25 24 24 24 27 28 28 30 28 23 22 20 18 18 20 25 29 31 32 33 34 36 35 35 35 35 33 32 32 34 40 46 47 45 43 41 41 39 36 35 34 30 28 29 31 33 33 31 26 21 21 27 28 28 30 27 24 23 22 22 20 19 19 20 23 26 26 24 21 20 20
35 35 34 33 32 31 33 33 32 32 31 30 28 27 27 26 26 26 26 24 20 24 29 27 30 30 25 24 24 24 23 22 25 31 34 35 37 38 38 39 39 38 36 34 34 34 38 45 48 44 40 39 38 38 38 36 34 35 33 28 29 34 34 31 31 28 22 22 27 28 29 31 29 27 25 25 26 23 19 17 17 20 25 27 27 23 21 22
36 36 35 35 33 32 33 33 33 33 32 30 28 27 27 26 26 26 28 28 21 21 25 27 28 27 25 25 26 29 30 27 27 31 35 37 39 39 40 41 41 38 37 37 39 40 40 43 45 41 37 38 39 38 37 35 34 36 36 34 35 37 33 25 22 20 17 18 22 23 26 33 32 29 29 28 26 23 18 16 16 18 23 26 28 27 24 23
37 36 35 35 34 32 32 32 31 31 30 28 27 26 26 25 25 25 27 31 28 21 20 24 28 26 23 24 27 31 32 30 30 32 34 39 40 40 41 41 40 40 40 40 41 42 42 38 36 37 38 38 38 39 38 35 35 38 40 41 39 39 38 30 23 20 16 16 18 18 20 30 33 29 29 27 24 23 21 19 18 18 21 24 29 30 29 25
38 37 36 36 34 31 31 31 29 29 28 26 25 25 25 25 24 25 25 28 30 25 20 23 26 25 24 27 28 29 31 33 33 33 36 39 40 41 42 41 41 43 42 40 40 42 44 39 29 25 33 39 38 39 41 39 36 36 41 44 40 37 38 35 31 26 19 17 22 19 14 21 29 28 26 23 22 22 22 21 20 17 18 22 26 28 29 28
39 39 37 37 36 32 30 30 26 26 25 23 23 22 23 23 20 21 23 24 26 22 19 20 19 21 25 28 29 29 31 33 31 35 38 38 38 40 42 43 44 43 42 39 39 41 43 42 34 23 22 31 39 40 41 39 32 31 39 42 39 37 35 33 32 25 15 15 21 18 11 15 26 31 27 20 19 19 18 20 18 15 15 18 21 24 27 29
38 39 38 37 37 34 30 29 27 25 23 20 21 20 19 19 16 17 18 16 15 12 14 16 13 18 21 23 27 29 29 28 30 38 41 39 39 41 41 45 45 43 43 39 38 42 42 40 40 34 23 22 35 41 41 40 31 29 39 40 35 34 33 34 31 25 20 20 24 24 19 18 28 39 37 26 23 22 21 23 20 16 15 14 16 20 24 28
37 38 39 36 36 36 32 30 27 25 22 18 17 17 16 14 12 11 9 5 4 3 8 10 10 15 17 18 22 29 30 25 26 34 40 40 40 42 43 45 45 43 44 43 43 45 43 40 40 40 33 26 31 36 36 39 35 31 36 35 31 28 28 30 27 23 22 21 24 26 20 17 25 39 42 35 33 32 29 27 23 20 19 16 14 17 20 24
36 37 39 36 34 33 32 30 27 24 21 17 15 16 14 11 9 5 1 3 4 4 7 8 9 12 14 15 17 26 32 26 21 25 38 44 42 42 44 43 42 42 43 44 45 45 41 38 36 37 40 36 33 30 29 32 35 35 33 26 22 22 20 20 19 18 18 17 23 23 17 14 19 31 36 35 36 37 34 31 26 23 22 19 16 15 19 22
36 36 38 37 33 31 29 28 26 23 20 16 14 15 13 11 10 6 5 7 6 6 10 12 11 10 10 14 14 21 30 28 20 19 35 45 43 42 42 40 40 40 41 42 44 46 42 36 33 33 37 36 33 31 28 26 28 31 30 19 13 15 15 14 16 16 13 15 22 23 20 15 16 26 35 40 41 37 33 31 28 26 24 21 17 14 16 22
35 35 37 37 35 32 28 25 23 21 18 15 13 12 12 12 12 8 6 11 9 7 9 12 14 12 10 11 13 17 26 27 20 18 33 45 44 43 43 40 38 34 35 42 43 45 43 35 32 33 32 29 29 33 32 27 23 24 26 20 13 11 13 13 14 14 12 9 10 16 21 19 18 22 28 37 41 36 33 33 31 28 24 22 20 15 14 18
35 34 35 36 35 34 30 25 22 19 16 13 13 13 14 12 15 17 11 7 7 7 10 11 13 14 11 10 11 13 21 26 22 17 27 43 46 47 48 45 44 35 30 39 42 40 42 40 35 32 30 28 26 28 32 30 26 24 25 24 17 9 8 10 10 9 11 8 2 5 12 18 26 31 30 35 39 36 33 32 31 29 26 23 21 18 14 13
34 34 34 34 33 32 30 27 23 19 15 11 13 16 17 11 11 23 22 12 6 4 10 12 13 14 11 9 10 12 16 22 25 17 17 33 45 47 48 46 47 40 29 32 37 33 31 36 40 35 30 31 29 28 30 31 31 30 27 26 21 10 5 9 8 5 7 8 7 9 11 15 24 32 35 36 37 38 38 34 32 30 27 25 22 19 16 13
33 34 34 33 31 31 29 27 23 19 15 11 14 16 19 15 8 11 17 21 20 13 11 12 13 14 11 9 10 11 13 17 23 21 15 26 41 45 46 45 44 41 33 28 33 33 23 24 39 43 36 34 34 33 30 27 29 32 30 28 24 17 10 6 6 6 3 3 10 14 13 11 12 15 19 19 20 25 30 32 33 32 29 26 23 21 19 16
30 32 34 33 30 29 27 25 22 19 15 11 15 18 20 19 11 4 6 16 23 22 20 18 15 14 11 11 10 10 12 14 19 23 18 22 36 41 42 42 40 39 37 28 27 34 28 23 34 40 39 38 33 32 31 23 23 29 30 29 27 27 21 6 2 7 3 0 7 14 16 14 12 16 18 17 17 19 21 25 28 30 30 28 26 24 21 19
28 28 30 31 29 27 25 24 22 20 16 13 16 21 24 19 11 8 8 10 14 17 18 19 20 19 17 15 14 12 12 13 15 20 20 20 29 36 37 39 39 38 40 34 26 27 24 23 31 30 30 36 33 31 31 26 24 25 29 32 30 30 26 12 4 5 4 5 7 13 20 21 18 24 28 27 27 27 26 27 28 30 31 30 29 26 23 21
29 27 27 28 27 25 24 23 22 21 18 14 17 22 25 22 16 13 13 12 11 11 10 10 12 14 13 13 15 16 14 12 11 15 20 21 23 32 36 37 37 38 42 40 32 26 19 19 28 29 25 27 30 30 29 29 28 25 27 32 26 20 22 19 10 5 6 7 6 13 21 19 14 19 25 28 31 33 33 33 32 31 30 31 31 28 23 21
29 28 26 25 25 25 24 22 22 22 18 14 20 23 22 23 21 18 18 16 13 11 11 9 8 8 8 8 10 14 14 14 12 13 20 22 18 25 34 35 36 39 43 43 36 29 23 16 16 22 24 23 27 30 28 30 33 29 27 28 22 15 17 22 14 6 8 7 5 9 15 19 22 23 17 14 17 22 26 30 33 33 33 32 32 30 25 23
29 27 26 23 22 22 22 22 21 21 16 11 17 18 18 22 23 21 20 18 16 15 12 9 9 9 9 8 7 10 11 11 11 13 17 18 15 19 28 31 33 37 41 45 41 30 25 19 11 12 18 20 25 31 30 31 34 33 29 24 22 18 16 24 23 10 7 7 5 4 7 14 26 32 30 24 19 16 15 18 23 28 33 34 33 31 28 25
29 26 24 21 20 21 21 21 21 20 12 8 13 14 15 19 22 21 19 17 16 14 11 10 11 11 12 12 10 10 10 8 8 10 11 11 13 16 22 25 28 33 36 39 41 34 25 22 15 13 17 21 27 33 33 34 37 38 32 23 24 22 14 17 25 20 11 6 5 5 6 5 6 11 16 19 20 20 19 19 21 23 26 30 33 33 31 29
28 26 23 21 19 19 19 19 18 16 10 7 11 15 17 17 18 19 19 17 15 13 10 11 12 13 14 14 12 12 12 9 7 6 6 7 10 13 16 20 21 24 27 30 35 35 30 24 19 16 19 23 27 28 27 29 34 37 36 32 30 27 18 12 14 23 22 13 6 5 8 8 5 6 5 3 5 9 13 16 20 23 24 23 25 27 29 30
27 25 23 21 19 17 17 15 13 11 9 7 9 11 14 15 15 17 18 17 15 14 12 12 12 14 15 14 13 14 14 12 10 9 7 7 10 11 12 16 17 16 19 25 29 33 33 28 22 18 18 19 21 22 21 23 29 34 36 38 36 31 28 19 11 18 24 19 14 9 10 14 17 17 15 11 9 8 7 7 9 16 22 22 21 21 22 26
26 23 21 21 19 17 15 12 9 9 9 9 10 10 12 14 14 14 15 15 14 11 10 11 11 11 11 11 12 12 11 9 9 9 9 8 10 11 10 11 13 14 16 21 24 27 29 27 24 20 16 15 16 19 22 25 32 37 36 38 38 35 35 32 24 20 20 19 18 11 10 13 11 8 7 7 8 7 6 6 6 9 16 20 21 20 19 22
26 22 19 20 19 15 12 10 10 11 11 11 10 9 11 14 16 14 11 11 12 10 8 9 10 10 10 9 10 11 10 10 9 8 10 10 10 11 10 9 9 11 14 16 17 20 20 20 23 18 11 13 14 15 22 28 32 36 36 36 38 39 39 38 32 24 20 22 25 17 11 12 11 9 8 7 8 9 9 10 10 9 11 15 18 20 19 19
26 23 19 18 15 10 9 11 13 13 13 13 11 9 9 11 13 13 10 8 8 10 10 9 7 7 8 8 9 9 9 10 9 8 10 11 11 11 10 9 7 7 11 12 12 15 15 15 21 18 11 11 11 11 18 24 25 29 34 36 38 40 40 37 31 24 21 23 29 27 19 14 16 17 14 11 10 10 8 7 8 9 10 12 14 16 17 16
26 24 22 19 10 5 10 13 12 13 14 14 11 10 9 9 9 8 9 9 8 9 12 13 9 7 6 7 8 8 9 10 10 8 8 8 10 11 11 11 8 6 8 8 8 11 11 11 17 21 16 11 8 9 16 24 24 23 28 32 34 37 37 37 34 28 25 24 29 37 33 26 27 25 18 16 15 13 10 8 8 9 10 11 11 12 13 14
24 23 24 21 11 7 10 11 9 10 12 13 13 10 8 10 11 9 7 8 9 7 8 11 11 9 8 7 6 6 6 9 11 11 9 9 8 9 10 10 9 7 6 5 6 8 8 8 11 15 15 13 12 12 15 22 24 22 25 29 31 32 34 37 35 30 29 27 27 37 41 38 39 34 24 19 16 13 13 12 12 9 8 9 10 10 11 12
23 21 20 19 15 14 13 10 9 10 10 11 12 11 9 11 12 12 9 5 6 7 7 8 8 7 8 8 7 5 4 6 9 10 12 12 11 11 10 9 9 8 6 5 5 6 5 4 7 10 11 11 14 14 13 16 19 20 24 28 31 32 32 34 34 33 35 33 30 36 41 42 45 42 36 31 24 19 17 15 15 14 12 11 10 10 11 12
23 21 18 17 16 16 14 12 11 11 11 11 11 11 12 12 12 12 12 8 5 5 7 7 7 6 5 6 6 5 4 5 6 8 11 12 12 13 12 11 10 10 9 7 6 6 4 3 5 9 10 9 10 13 15 15 17 20 23 27 31 34 33 32 33 36 39 38 38 40 40 41 44 41 40 38 35 33 30 24 19 18 16 15 14 15 16 16
21 20 19 18 16 15 13 12 12 12 11 11 10 10 11 12 12 11 11 10 8 4 4 5 6 7 6 6 5 3 2 5 8 9 11 11 11 12 13 13 13 12 11 9 8 8 5 5 8 9 11 11 9 10 13 15 17 21 24 28 29 32 34 35 34 35 35 36 39 42 41 45 46 41 37 36 34 35 36 32 28 26 24 23 24 24 20 17
20 19 19 18 17 16 14 13 12 12 11 9 9 11 11 11 13 13 11 9 6 3 3 5 5 5 6 6 9 8 7 8 9 9 9 10 11 11 12 13 14 15 14 11 10 9 8 8 10 9 10 12 11 9 13 16 18 22 27 31 32 32 34 35 35 35 33 32 35 38 41 44 44 38 36 35 33 33 33 34 35 35 33 31 30 28 24 19
20 18 17 18 19 17 15 14 13 12 10 8 9 12 12 11 13 14 11 8 5 4 6 6 5 6 6 6 8 11 12 13 13 13 12 12 13 13 13 14 15 17 17 15 13 12 10 10 10 7 8 11 12 11 11 13 15 17 22 29 35 37 37 35 36 36 33 30 31 32 34 39 41 37 36 35 34 33 32 33 34 33 31 31 30 28 27 23
Wind_Direction
312 310 308 307 305 305 303 302 301 301 301 301 298 294 288 283 278 273 269 266 264 263 263 264 264 266 268 269 271 271 269 267 264 259 254 238 226 220 214 215 219 218 220 220 220 220 219 217 216 218 220 224 226 231 238 241 256 253 248 250 198 132 124 124 133 130 312 269 260 267 274 268 240 354 29 94 169 224 235 189 186 166 168 164 165 182 199 195
314 312 310 307 305 304 302 301 300 299 299 300 300 299 295 290 284 278 273 268 265 263 261 261 261 261 263 265 266 267 267 266 263 259 251 243 232 225 220 218 221 220 220 220 220 221 221 220 219 219 222 225 222 226 234 239 248 252 255 245 147 121 123 123 115 90 34 344 280 267 271 268 260 290 301 339 10 287 266 210 199 191 179 178 175 180 194 203
314 313 311 309 307 304 302 300 299 298 298 298 299 298 297 295 290 285 280 274 269 264 261 260 258 259 260 261 262 264 265 264 263 259 248 245 238 229 224 222 224 224 223 222 220 220 219 219 220 221 221 223 221 225 232 237 242 242 243 228 150 143 140 128 110 84 50 25 327 274 267 264 253 253 261 283 338 42 58 103 116 125 169 185 190 183 186 198
312 311 310 309 308 305 303 301 299 299 298 297 297 295 295 295 293 292 288 283 276 268 263 261 259 257 258 259 260 261 263 265 264 260 251 243 234 226 221 218 220 222 223 221 218 216 214 213 216 220 221 222 220 222 231 237 240 235 226 196 152 169 158 138 120 86 44 31 13 330 283 269 251 242 256 273 285 70 76 89 96 92 87 130 180 192 182 185
307 307 307 307 306 305 303 302 301 299 298 297 295 293 293 293 294 295 294 292 285 277 268 263 261 258 258 258 258 260 262 266 265 255 249 243 229 222 218 213 212 214 218 218 216 213 211 211 211 214 217 221 221 223 230 234 240 235 216 178 162 167 160 148 119 46 9 18 20 8 334 291 261 253 269 282 295 66 75 89 102 109 97 80 108 195 187 175
303 303 303 303 303 302 302 302 301 300 299 297 293 291 290 291 293 295 297 297 294 288 277 268 264 260 258 257 257 258 255 255 261 243 232 236 229 221 216 212 209 210 213 215 215 213 211 211 211 212 214 217 220 224 229 231 239 240 226 205 185 169 166 158 103 1 351 0 3 355 339 312 273 261 271 274 247 93 89 115 123 119 112 118 127 153 188 175
302 301 300 300 299 299 299 298 298 299 299 297 293 290 288 289 292 295 298 298 297 291 282 273 267 263 260 258 256 256 254 248 237 226 220 225 232 226 218 213 210 209 211 212 213 213 212 212 212 212 214 216 218 222 224 226 236 241 231 212 202 187 177 185 253 297 328 343 339 330 327 322 296 278 277 270 252 225 176 155 156 130 115 132 143 142 176 176
306 303 300 299 298 297 296 295 295 296 296 295 292 290 289 289 291 294 295 294 292 287 281 273 266 263 262 260 258 256 254 234 218 224 226 221 224 224 217 214 213 211 212 214 215 215 215 214 213 212 213 216 219 222 222 223 233 239 232 219 219 213 197 221 246 246 290 308 310 312 323 329 317 301 278 253 260 257 232 208 203 203 145 130 141 156 174 177
311 307 304 301 298 297 295 294 294 293 294 292 290 290 289 290 292 291 287 284 282 281 279 273 269 266 263 262 261 254 219 199 213 223 224 215 217 222 216 214 215 214 212 212 213 213 215 215 214 214 216 217 220 223 223 225 232 238 240 237 233 225 217 233 240 233 269 284 294 305 323 329 320 299 269 239 262 260 241 232 228 232 244 193 151 160 175 179
313 310 307 304 301 298 295 294 293 293 292 290 288 288 289 291 292 287 282 277 276 277 276 275 273 270 268 265 261 247 201 218 223 224 225 218 219 222 218 216 215 214 212 211 212 211 212 214 215 216 217 219 220 223 224 226 231 237 245 244 233 229 227 234 234 235 262 270 284 304 318 319 308 286 270 257 260 257 247 240 240 246 245 239 203 171 176 182
314 312 309 306 303 300 297 294 292 291 291 289 287 287 289 290 288 285 282 277 275 274 273 272 271 270 269 268 266 248 225 228 224 220 223 221 218 217 214 212 212 212 212 214 214 212 209 209 214 217 218 219 221 225 229 229 232 237 245 246 238 238 235 230 229 236 258 263 277 298 301 298 284 271 273 275 266 257 252 245 245 250 244 238 232 198 183 181
315 313 310 308 305 301 298 295 293 291 289 287 286 286 287 287 284 283 281 279 276 273 272 268 267 267 267 270 270 242 232 224 222 218 213 213 212 211 208 202 204 208 212 216 217 213 207 206 210 213 217 221 222 227 232 232 233 236 241 245 244 246 239 227 226 240 256 259 270 286 287 279 266 267 296 299 286 267 253 246 246 248 245 240 232 219 198 187
317 315 312 309 306 303 299 296 294 293 290 286 285 284 285 284 282 280 280 279 277 274 272 267 264 263 265 267 198 220 231 218 220 220 210 208 206 206 205 196 192 194 201 210 213 211 205 204 208 211 216 220 222 225 230 233 235 237 241 244 246 250 242 229 230 244 254 255 262 273 276 271 263 272 297 298 291 273 254 245 243 243 244 242 235 229 213 198
322 320 317 314 310 305 301 298 296 295 293 289 286 284 283 282 280 279 277 276 275 273 271 268 265 261 261 250 194 218 231 223 220 219 212 206 202 204 201 194 188 183 185 187 192 202 203 204 207 212 218 219 220 222 226 231 235 238 242 244 247 252 244 232 234 246 250 251 257 266 269 267 268 282 297 300 296 275 255 246 242 241 242 242 238 232 223 212
326 324 323 320 316 311 306 303 301 299 296 293 289 286 284 282 279 278 275 273 272 270 270 268 266 263 259 240 211 219 227 232 225 215 212 206 201 202 198 195 190 182 179 177 177 187 197 204 209 213 219 220 221 224 225 228 232 233 236 241 244 247 242 232 235 246 251 252 253 261 264 265 272 288 299 300 298 281 257 248 242 240 241 242 239 233 229 221
324 324 323 321 320 316 311 309 306 304 301 296 293 289 286 283 280 278 275 273 270 268 268 266 264 264 262 246 227 224 224 230 223 210 210 203 198 198 196 194 191 185 181 180 179 183 189 199 208 213 218 219 222 224 226 230 232 229 227 231 236 241 242 238 239 245 250 253 254 258 261 263 273 288 296 298 295 285 262 247 240 240 240 240 240 234 230 224
320 320 320 319 318 316 313 312 311 310 308 302 297 293 289 286 282 278 275 272 270 268 265 264 263 262 262 253 237 229 224 223 218 212 208 201 196 195 195 194 192 190 187 186 187 188 192 198 204 209 213 217 219 221 223 229 229 225 225 229 232 235 239 241 242 243 245 250 256 260 259 261 271 282 293 303 300 287 268 250 240 239 239 239 238 234 230 228
318 317 317 316 315 313 312 311 311 311 312 308 304 297 292 287 283 280 276 271 268 266 264 262 260 259 260 255 242 230 220 217 218 216 209 201 197 194 196 197 195 195 193 194 194 195 199 203 207 210 213 215 216 216 216 221 224 222 222 227 233 235 237 240 242 243 245 250 253 256 259 262 271 280 291 303 303 293 279 260 244 239 239 240 238 235 230 230
316 315 315 314 313 312 310 310 309 309 311 310 308 304 298 291 285 279 275 271 267 264 262 258 254 252 253 248 234 226 220 216 216 216 211 205 200 196 197 198 198 200 200 200 201 202 204 207 210 213 215 215 215 217 218 221 224 225 226 228 234 238 240 240 243 246 248 250 250 252 259 266 274 281 288 298 301 295 286 268 249 240 240 241 239 237 233 232
314 313 312 311 311 310 309 308 308 307 308 308 307 306 303 299 291 283 276 271 268 262 256 255 254 249 245 238 225 222 223 218 214 212 209 207 203 200 200 200 200 203 207 207 208 208 208 213 216 216 216 216 217 220 223 226 227 229 231 232 235 239 242 242 243 247 250 253 253 253 259 265 272 279 283 289 292 289 282 272 257 245 241 242 241 237 234 232
311 310 309 308 308 308 307 306 307 306 307 306 307 306 304 303 298 291 282 271 266 264 257 252 253 249 239 234 227 225 226 218 212 208 206 205 204 203 204 203 202 204 207 209 213 215 215 220 223 221 221 221 221 223 226 228 229 231 233 234 236 239 242 243 244 245 247 253 254 256 262 265 269 277 277 276 278 284 284 275 266 255 247 244 243 237 234 231
309 308 307 305 305 306 305 305 305 304 305 306 307 306 304 304 303 300 293 278 260 259 259 251 248 248 239 233 228 225 225 220 212 207 204 203 203 204 206 206 206 207 206 205 211 216 220 226 227 226 225 224 224 225 228 230 230 232 233 235 236 237 241 245 248 249 249 253 257 262 268 268 269 273 272 270 272 281 285 274 268 263 256 250 247 242 236 229
310 308 306 304 303 305 305 305 305 304 304 306 306 306 305 305 306 306 302 292 268 246 256 257 251 247 238 231 225 222 224 221 213 207 205 205 203 204 206 207 208 209 207 204 208 213 219 228 231 228 225 225 225 225 227 229 230 231 232 233 235 236 239 243 250 250 245 248 255 263 270 269 269 270 269 268 270 275 279 275 266 259 257 255 251 248 243 233
312 310 308 304 302 304 304 304 307 305 304 305 303 303 303 303 307 307 304 301 284 256 252 257 254 249 239 230 222 220 224 222 214 209 208 207 204 203 207 209 208 209 211 211 211 214 219 227 232 229 225 224 225 225 225 225 227 231 231 232 235 237 237 240 245 246 245 246 249 262 278 272 267 267 266 264 264 265 269 274 271 259 255 255 250 246 246 239
313 312 309 306 303 303 303 304 309 308 305 304 301 300 300 301 306 306 307 306 295 281 264 255 251 249 243 233 224 218 222 223 216 210 211 211 207 206 207 209 209 211 213 213 214 218 223 226 230 228 225 223 223 224 225 223 225 230 233 233 235 238 239 242 248 253 261 263 255 261 279 275 267 262 260 261 260 260 263 267 270 267 260 254 249 244 243 242
314 312 310 308 306 303 301 303 307 306 305 304 298 294 294 298 303 306 310 307 301 296 277 260 246 239 238 234 226 217 219 225 217 207 210 212 210 210 211 209 210 215 217 214 215 222 226 227 228 227 227 224 222 225 226 224 223 229 235 235 235 239 241 243 247 252 262 264 259 257 259 275 274 263 257 259 257 253 253 256 262 267 261 253 251 246 242 240
316 314 311 310 309 306 303 301 303 306 307 302 294 288 287 293 299 308 315 307 302 297 269 255 230 222 230 229 221 212 214 223 218 210 210 212 210 210 214 214 212 216 217 212 215 225 227 225 225 226 228 223 221 224 226 223 221 229 237 237 236 239 240 243 247 250 257 265 266 263 259 269 273 264 256 252 251 252 249 250 256 262 264 259 253 249 245 241
319 316 312 312 312 310 309 305 303 307 310 302 289 282 281 285 290 303 319 308 294 275 251 241 209 207 216 219 214 207 207 214 218 213 209 212 213 209 212 217 217 219 216 210 215 226 228 224 225 226 222 221 223 225 227 224 221 229 237 239 239 240 242 245 247 251 258 266 266 260 250 251 264 264 261 258 256 255 251 249 251 256 265 271 265 254 249 245
322 319 315 314 314 314 314 311 307 307 308 301 285 273 269 269 266 268 294 262 249 225 231 225 208 207 210 212 208 204 205 209 217 211 203 208 213 211 213 217 218 221 220 216 219 227 231 230 232 231 225 228 233 232 229 225 224 230 236 241 244 241 242 241 238 244 254 256 255 250 235 239 262 263 261 262 258 252 248 248 250 256 264 272 275 265 252 247
324 321 317 316 317 316 316 315 312 308 304 299 282 265 252 241 232 208 199 229 239 233 231 223 210 207 208 207 202 202 204 206 213 204 196 203 208 210 213 216 217 219 221 221 223 227 232 234 234 232 232 237 243 240 234 228 228 234 234 228 229 229 224 227 230 237 250 254 251 246 236 240 266 265 259 257 254 250 249 248 249 254 259 264 270 271 257 247
325 322 318 318 319 319 319 318 316 310 304 294 272 250 233 220 206 194 221 237 241 237 223 217 212 212 216 206 198 203 204 203 205 197 194 198 202 204 207 210 210 213 220 222 223 226 229 232 232 232 235 239 241 241 240 234 227 228 226 214 209 214 214 225 233 232 241 252 247 242 239 235 244 256 258 256 253 251 250 247 246 250 253 257 265 271 268 253
324 322 319 319 320 322 324 323 320 313 305 286 257 231 214 207 208 214 219 226 244 235 210 210 211 212 220 212 202 204 203 203 202 193 194 198 199 202 204 205 203 199 209 217 220 225 224 226 231 235 237 234 230 230 232 230 221 216 216 210 207 205 206 221 223 224 237 241 204 216 225 228 238 249 255 257 257 253 247 244 244 246 248 254 262 267 272 266
324 321 319 320 320 323 323 324 324 317 307 279 245 223 207 203 225 227 221 215 243 233 200 206 206 203 209 209 207 205 202 208 207 200 199 200 201 203 204 207 207 201 202 209 213 218 221 225 229 231 234 233 226 217 214 215 212 208 204 200 199 195 194 215 212 226 251 234 218 220 226 239 250 258 261 260 261 259 251 244 241 242 245 251 258 261 266 267
324 321 320 321 321 322 320 323 325 317 310 276 238 217 207 212 229 231 226 230 242 245 221 214 205 198 203 211 217 214 206 209 210 209 209 201 200 202 204 208 211 209 208 209 210 211 210 220 225 224 225 227 225 221 220 218 213 210 206 202 204 205 203 209 203 216 255 202 195 205 222 239 238 249 258 257 258 261 257 249 243 241 244 248 253 256 259 259
324 321 319 320 320 320 318 320 322 317 311 276 233 213 211 220 227 242 248 235 241 248 242 237 229 217 222 231 231 221 206 206 210 209 209 204 201 202 203 206 209 210 211 211 211 212 211 221 225 223 224 226 225 224 226 224 216 214 212 210 214 215 211 208 198 204 210 189 188 197 219 233 229 240 248 248 251 252 254 254 247 243 243 245 252 254 255 259
325 321 318 316 316 317 317 317 319 316 308 277 239 224 221 224 231 253 260 243 248 262 255 247 245 243 247 247 239 231 217 209 209 205 204 205 206 204 203 205 206 208 212 213 212 210 208 222 229 224 223 227 227 225 221 213 208 208 206 209 217 220 215 215 227 200 207 255 221 211 234 245 252 259 254 248 251 251 251 253 250 247 245 244 250 254 255 260
327 324 319 316 316 316 316 316 315 314 309 280 247 237 230 227 233 251 261 256 259 282 284 261 247 242 247 246 233 229 225 216 208 201 196 197 205 207 204 205 205 206 211 215 217 216 209 220 230 226 223 225 225 227 225 218 213 206 203 207 209 214 218 221 231 226 219 250 235 220 240 248 244 256 257 249 249 250 250 251 251 250 247 245 247 251 255 257
331 329 323 320 319 315 313 315 313 314 316 283 250 246 242 236 234 245 261 264 260 274 286 276 255 239 238 240 224 214 211 208 203 190 186 187 196 202 202 204 205 206 211 213 216 220 218 221 232 226 226 227 221 219 217 218 220 218 218 215 202 197 204 205 213 232 217 235 256 226 238 245 234 234 243 242 242 248 251 251 252 251 247 244 244 247 251 254
334 331 327 325 323 317 313 314 314 319 322 283 255 254 253 247 239 243 261 270 268 271 278 272 259 249 243 248 237 214 200 194 190 182 180 186 192 195 197 200 202 206 211 212 213 216 217 219 223 215 220 223 214 207 203 207 215 220 226 220 207 208 202 196 203 212 204 223 252 230 230 249 249 247 246 244 240 241 244 246 250 251 248 245 243 245 248 252
335 333 332 331 326 320 317 315 317 324 321 268 253 256 258 258 251 249 263 274 272 272 274 266 258 257 255 254 256 246 227 204 185 176 175 184 187 190 196 197 198 205 211 212 213 215 213 216 217 204 204 208 205 203 202 205 207 211 214 205 201 209 203 199 210 212 209 221 234 243 250 248 262 264 257 251 246 242 241 242 245 247 247 247 246 246 247 250
337 336 336 336 331 325 322 321 320 323 319 274 262 261 263 273 270 261 265 271 269 266 267 265 264 269 268 261 261 260 251 244 229 203 190 186 180 182 195 198 196 203 209 209 212 214 212 211 209 200 198 204 207 208 211 215 214 213 211 205 204 205 193 189 214 214 216 225 218 237 267 260 253 262 258 248 242 246 250 249 246 243 239 239 241 244 246 247
341 342 340 338 337 332 326 328 326 321 322 311 295 283 279 286 285 273 270 273 273 266 264 267 269 270 268 264 263 262 258 257 255 242 226 206 191 180 182 192 191 190 197 200 205 211 212 210 209 207 207 208 212 215 217 222 224 223 222 218 213 207 200 199 210 207 208 220 229 241 271 269 267 267 262 262 262 266 269 255 245 239 231 228 231 238 243 244
345 348 344 339 341 339 330 328 330 328 331 322 305 295 292 290 289 280 271 270 271 264 255 255 254 255 259 258 252 250 249 246 243 235 219 202 196 189 172 173 180 179 182 187 195 205 209 209 208 211 217 216 213 216 218 223 224 222 224 223 217 213 212 215 222 216 207 209 214 224 252 252 255 266 268 276 269 256 252 245 248 249 237 230 231 234 237 239
343 346 347 345 345 343 338 339 348 347 342 337 322 297 285 282 283 285 274 260 255 245 232 228 226 233 244 246 238 232 227 223 227 225 210 195 190 192 181 165 167 172 173 175 185 197 202 204 202 202 213 214 212 217 219 222 222 220 221 222 221 222 222 222 223 223 222 215 209 214 237 235 232 243 256 270 267 257 257 253 252 256 247 238 233 230 231 235
342 343 348 354 352 350 355 352 351 348 338 335 335 319 298 283 281 285 281 265 243 231 232 231 217 217 229 232 231 230 220 210 214 221 216 207 197 194 192 185 177 167 166 170 179 187 191 192 193 198 209 208 206 211 211 212 215 219 223 224 224 225 224 222 220 217 222 221 214 218 230 239 243 249 255 258 257 264 273 263 255 250 240 236 235 233 237 242
344 342 346 357 5 1 352 343 337 338 333 330 335 334 320 304 294 291 286 278 253 222 227 237 232 217 218 220 220 225 217 204 206 217 223 219 210 203 202 201 197 181 167 163 165 175 180 179 188 204 218 217 202 188 197 208 213 215 219 222 224 225 224 223 221 217 219 222 224 228 234 245 251 250 254 256 253 259 261 257 268 262 237 233 243 250 250 247
346 345 345 352 360 351 343 336 329 335 334 329 334 341 334 317 312 311 302 278 260 241 230 229 226 220 219 217 214 220 218 211 217 228 235 238 231 219 213 209 208 208 199 187 174 167 166 171 188 205 219 223 215 193 191 209 217 216 216 218 220 222 223 223 223 222 223 222 230 237 237 243 248 248 250 253 253 255 252 256 265 256 236 246 260 261 257 254
346 347 347 347 344 344 346 342 336 339 338 329 331 336 334 330 327 324 324 306 267 275 273 244 227 220 209 198 198 209 218 221 228 237 242 249 250 243 236 232 230 232 230 229 221 196 173 185 205 212 222 225 218 210 209 217 223 222 218 217 219 219 220 223 225 227 229 228 235 243 242 244 248 250 249 248 248 247 250 265 269 253 243 251 253 252 260 270
345 344 347 345 338 340 344 341 336 338 337 330 329 331 328 330 332 326 325 326 304 293 289 267 256 252 226 192 181 184 200 219 226 232 241 253 259 258 257 256 254 250 244 248 252 236 223 246 240 232 239 237 217 215 227 237 240 237 227 220 219 219 221 225 227 228 231 234 239 245 248 250 252 256 256 255 256 255 256 261 257 243 237 236 240 254 267 274
345 340 341 341 339 340 339 333 331 333 335 333 329 325 324 325 323 318 322 325 313 290 276 271 268 265 258 243 228 212 214 227 230 236 244 257 265 270 270 264 263 263 255 257 263 253 247 261 264 267 268 256 233 221 232 241 249 250 240 229 224 224 225 227 229 230 232 236 240 243 249 252 254 258 261 262 264 263 261 258 248 240 240 245 253 264 273 276
344 339 337 335 335 337 335 330 333 334 332 333 325 315 319 326 321 315 316 315 309 302 279 274 277 272 265 257 248 246 252 253 250 253 260 264 264 266 270 268 269 271 268 266 270 266 267 275 281 296 294 270 253 244 245 250 259 261 249 237 231 230 231 231 232 233 234 238 241 242 246 250 253 256 261 264 265 265 264 261 255 251 252 258 264 268 272 273
342 341 339 331 326 329 331 329 333 334 327 322 318 313 318 324 322 323 322 301 286 317 305 287 291 287 276 269 256 247 247 252 258 264 266 266 266 265 267 269 271 274 275 274 274 273 275 284 292 301 296 276 264 264 276 281 275 264 252 242 236 236 238 240 238 236 236 239 244 245 247 251 254 257 260 263 264 264 264 264 264 263 260 263 266 268 271 270
Height
3150 3149 3149 3148 3147 3146 3146 3145 3144 3143 3143 3142 3141 3141 3140 3140 3140 3140 3140 3140 3141 3141 3141 3141 3142 3142 3143 3143 3143 3143 3143 3143 3143 3143 3144 3144 3144 3144 3145 3147 3148 3150 3152 3154 3156 3159 3161 3163 3165 3166 3167 3168 3169 3169 3169 3170 3170 3170 3170 3170 3171 3171 3172 3172 3173 3173 3174 3174 3174 3175 3176 3177 3177 3177 3177 3176 3176 3176 3176 3177 3177 3178 3179 3179 3180 3181 3183 3183
3149 3148 3147 3146 3145 3144 3144 3143 3142 3141 3141 3140 3139 3139 3138 3138 3138 3137 3137 3138 3138 3139 3139 3139 3139 3140 3140 3140 3141 3141 3141 3141 3141 3142 3143 3142 3142 3143 3144 3145 3146 3149 3151 3153 3155 3158 3160 3162 3164 3165 3166 3167 3168 3168 3168 3169 3170 3169 3169 3170 3171 3171 3172 3172 3173 3173 3174 3174 3174 3174 3175 3176 3177 3177 3177 3177 3176 3176 3176 3177 3177 3178 3178 3179 3179 3180 3182 3183
3147 3146 3145 3144 3143 3142 3142 3141 3140 3139 3139 3138 3137 3137 3136 3136 3135 3135 3135 3135 3136 3136 3136 3136 3137 3137 3137 3138 3138 3139 3139 3139 3139 3140 3140 3140 3141 3142 3143 3144 3145 3148 3150 3152 3155 3157 3159 3161 3163 3164 3165 3166 3167 3167 3168 3168 3169 3169 3169 3169 3171 3172 3172 3172 3172 3173 3173 3173 3173 3174 3175 3176 3176 3177 3177 3177 3177 3176 3176 3177 3177 3178 3178 3179 3179 3180 3181 3182
3145 3144 3143 3142 3141 3140 3140 3139 3138 3137 3137 3136 3135 3135 3134 3134 3133 3133 3133 3133 3133 3134 3134 3134 3134 3135 3135 3135 3136 3136 3137 3137 3137 3138 3138 3138 3139 3140 3141 3142 3144 3146 3148 3150 3152 3154 3156 3159 3161 3162 3163 3164 3165 3166 3167 3167 3168 3168 3168 3169 3171 3171 3171 3172 3172 3173 3173 3173 3173 3173 3174 3175 3176 3177 3177 3177 3177 3177 3177 3177 3177 3178 3178 3179 3179 3180 3180 3182
3143 3142 3141 3140 3139 3139 3138 3137 3136 3136 3135 3134 3133 3132 3132 3131 3131 3131 3131 3131 3131 3131 3132 3132 3132 3133 3132 3133 3133 3134 3135 3135 3135 3136 3136 3136 3137 3138 3139 3140 3142 3144 3145 3147 3149 3151 3153 3156 3158 3159 3161 3163 3164 3165 3166 3167 3167 3167 3167 3169 3170 3170 3171 3171 3172 3172 3172 3173 3173 3173 3174 3174 3175 3176 3176 3177 3177 3177 3177 3177 3178 3178 3179 3179 3179 3179 3180 3181
3141 3140 3139 3138 3137 3137 3136 3135 3134 3134 3133 3132 3131 3130 3130 3129 3129 3129 3129 3129 3129 3129 3129 3129 3130 3130 3130 3130 3131 3132 3133 3133 3133 3134 3134 3135 3135 3136 3137 3138 3140 3141 3142 3144 3146 3149 3151 3153 3155 3157 3159 3161 3163 3164 3165 3166 3166 3165 3167 3168 3169 3170 3171 3171 3171 3171 3171 3172 3172 3173 3173 3174 3174 3175 3176 3176 3177 3178 3177 3178 3178 3178 3178 3179 3179 3179 3180 3181
3139 3138 3137 3136 3135 3134 3134 3133 3132 3132 3131 3130 3129 3128 3128 3128 3128 3127 3127 3127 3127 3127 3127 3127 3127 3128 3128 3128 3128 3129 3129 3131 3132 3131 3132 3133 3134 3134 3135 3137 3138 3138 3139 3141 3143 3146 3148 3151 3153 3156 3158 3160 3161 3163 3164 3165 3165 3164 3165 3167 3168 3169 3170 3170 3170 3170 3171 3171 3171 3172 3172 3173 3173 3174 3174 3175 3176 3178 3178 3178 3178 3178 3178 3178 3179 3180 3180 3181
3137 3136 3135 3134 3133 3132 3131 3130 3130 3129 3129 3128 3127 3126 3126 3126 3126 3126 3126 3125 3125 3125 3125 3125 3125 3125 3125 3125 3126 3126 3127 3128 3128 3128 3130 3132 3132 3133 3134 3135 3136 3137 3138 3140 3142 3145 3148 3150 3152 3155 3156 3158 3160 3161 3163 3163 3163 3163 3164 3166 3167 3168 3169 3169 3169 3169 3170 3170 3171 3171 3171 3172 3172 3173 3173 3173 3175 3177 3177 3178 3178 3179 3179 3178 3179 3179 3180 3181
3134 3133 3132 3131 3130 3129 3128 3128 3127 3127 3127 3126 3125 3124 3124 3124 3124 3124 3124 3123 3123 3123 3123 3123 3123 3123 3123 3123 3124 3124 3125 3126 3126 3126 3128 3130 3130 3131 3132 3133 3134 3135 3137 3139 3141 3144 3146 3148 3151 3154 3155 3157 3159 3160 3161 3162 3162 3162 3163 3164 3165 3166 3167 3167 3168 3169 3169 3169 3170 3170 3170 3170 3170 3171 3171 3172 3173 3175 3177 3177 3177 3178 3179 3179 3179 3179 3180 3181
3132 3130 3129 3128 3127 3126 3125 3125 3124 3124 3124 3123 3122 3122 3122 3122 3122 3122 3121 3121 3120 3120 3121 3121 3121 3121 3121 3121 3121 3122 3123 3123 3123 3124 3126 3127 3129 3130 3131 3131 3132 3133 3135 3137 3138 3141 3144 3148 3151 3153 3155 3156 3157 3158 3159 3160 3161 3161 3162 3163 3164 3165 3166 3166 3167 3168 3168 3169 3169 3169 3169 3169 3169 3169 3169 3170 3172 3173 3175 3176 3177 3177 3178 3179 3179 3179 3179 3180
3130 3128 3127 3126 3125 3123 3123 3122 3121 3121 3121 3120 3119 3119 3119 3120 3119 3119 3119 3119 3118 3118 3118 3119 3119 3119 3119 3119 3120 3120 3120 3120 3121 3122 3124 3125 3127 3128 3129 3129 3131 3132 3134 3136 3138 3140 3144 3147 3149 3151 3153 3154 3156 3157 3157 3158 3160 3160 3160 3161 3162 3163 3164 3165 3166 3167 3168 3168 3169 3168 3168 3167 3167 3167 3167 3169 3171 3172 3174 3175 3176 3177 3177 3178 3179 3179 3179 3179
3128 3127 3125 3124 3122 3121 3120 3119 3119 3118 3118 3118 3116 3116 3117 3117 3117 3116 3116 3116 3116 3116 3116 3116 3116 3117 3117 3117 3118 3117 3117 3118 3119 3120 3121 3123 3124 3125 3126 3127 3129 3131 3133 3135 3137 3140 3143 3144 3146 3149 3151 3152 3154 3155 3156 3157 3158 3158 3159 3160 3161 3162 3162 3163 3165 3166 3167 3167 3168 3168 3166 3165 3165 3166 3167 3169 3170 3171 3172 3173 3175 3176 3177 3177 3178 3179 3179 3178
3126 3124 3123 3122 3120 3119 3117 3116 3116 3116 3115 3115 3114 3114 3114 3114 3114 3113 3113 3113 3113 3113 3113 3114 3114 3114 3114 3115 3116 3115 3114 3116 3116 3117 3119 3121 3122 3124 3125 3126 3127 3129 3131 3134 3137 3139 3140 3142 3144 3147 3149 3150 3152 3153 3154 3155 3156 3157 3158 3158 3159 3160 3161 3162 3164 3164 3165 3166 3166 3167 3164 3162 3163 3166 3167 3168 3169 3170 3170 3172 3173 3174 3175 3176 3177 3178 3178 3178
3123 3122 3120 3119 3118 3116 3115 3114 3113 3113 3113 3112 3111 3111 3111 3111 3111 3110 3111 3110 3110 3110 3110 3111 3111 3111 3112 3113 3113 3112 3113 3113 3114 3115 3117 3119 3120 3122 3124 3125 3126 3127 3129 3132 3134 3136 3138 3140 3143 3145 3146 3148 3149 3151 3152 3153 3154 3155 3156 3157 3157 3158 3159 3161 3163 3163 3164 3165 3165 3166 3163 3160 3162 3165 3166 3166 3167 3168 3169 3170 3171 3173 3174 3175 3176 3177 3177 3177
3121 3119 3118 3117 3115 3113 3111 3111 3111 3110 3110 3109 3108 3108 3108 3107 3107 3107 3107 3107 3108 3107 3107 3108 3108 3108 3109 3111 3111 3110 3111 3111 3112 3115 3116 3117 3119 3121 3123 3124 3125 3126 3128 3130 3132 3134 3137 3139 3140 3142 3143 3145 3148 3149 3150 3151 3152 3153 3154 3155 3155 3155 3157 3159 3161 3161 3163 3164 3164 3164 3161 3159 3161 3163 3164 3165 3165 3166 3167 3169 3170 3171 3172 3173 3175 3176 3176 3177
3119 3118 3116 3114 3113 3110 3109 3108 3107 3107 3107 3106 3105 3105 3104 3104 3104 3104 3104 3104 3104 3104 3104 3104 3105 3105 3105 3108 3108 3108 3108 3109 3111 3113 3113 3115 3117 3120 3122 3123 3124 3125 3126 3128 3130 3132 3134 3136 3137 3139 3141 3143 3144 3146 3148 3149 3149 3150 3151 3152 3152 3154 3155 3157 3159 3160 3161 3162 3162 3161 3159 3158 3160 3161 3162 3162 3163 3164 3165 3167 3168 3169 3170 3172 3173 3174 3175 3176
3118 3116 3114 3113 3111 3108 3107 3106 3105 3104 3104 3103 3102 3101 3101 3101 3100 3100 3100 3100 3100 3101 3101 3101 3102 3102 3102 3104 3105 3105 3106 3107 3109 3109 3111 3113 3115 3118 3119 3120 3122 3124 3125 3127 3128 3130 3132 3133 3134 3136 3137 3139 3140 3143 3145 3144 3144 3147 3148 3150 3150 3152 3154 3155 3157 3158 3159 3160 3160 3160 3157 3156 3158 3160 3160 3160 3160 3162 3163 3164 3166 3167 3168 3169 3171 3173 3173 3174
3116 3114 3113 3111 3109 3106 3104 3103 3102 3102 3101 3100 3099 3099 3098 3097 3097 3097 3097 3097 3097 3097 3098 3097 3098 3098 3099 3100 3101 3103 3103 3104 3106 3107 3109 3111 3112 3115 3117 3119 3121 3122 3124 3125 3126 3128 3129 3130 3132 3133 3133 3134 3135 3137 3137 3137 3139 3143 3146 3148 3149 3150 3152 3153 3154 3156 3157 3158 3158 3157 3155 3155 3157 3158 3158 3158 3158 3158 3160 3162 3164 3165 3166 3167 3169 3171 3172 3172
3113 3112 3111 3109 3107 3104 3102 3101 3100 3099 3099 3098 3096 3095 3094 3094 3094 3093 3094 3094 3093 3094 3094 3093 3094 3095 3096 3097 3098 3099 3100 3102 3103 3105 3107 3108 3110 3113 3115 3117 3119 3120 3121 3122 3123 3124 3125 3127 3128 3127 3126 3127 3129 3131 3132 3135 3139 3143 3145 3147 3148 3149 3150 3151 3152 3154 3155 3156 3156 3155 3154 3154 3156 3157 3156 3156 3156 3156 3157 3159 3161 3163 3164 3166 3167 3169 3170 3171
3110 3109 3108 3107 3105 3102 3099 3098 3097 3096 3096 3095 3094 3093 3091 3091 3090 3089 3090 3090 3089 3089 3089 3089 3089 3091 3093 3094 3095 3095 3097 3098 3100 3102 3104 3106 3108 3110 3112 3113 3116 3117 3118 3119 3121 3122 3124 3124 3120 3119 3120 3123 3127 3131 3133 3136 3140 3143 3144 3146 3146 3147 3147 3148 3150 3152 3154 3154 3153 3153 3153 3152 3154 3155 3155 3155 3154 3153 3154 3156 3158 3160 3161 3163 3165 3166 3168 3169
3107 3106 3105 3104 3103 3100 3097 3095 3094 3093 3092 3092 3091 3090 3089 3087 3086 3085 3086 3086 3086 3085 3085 3086 3085 3086 3089 3091 3092 3093 3093 3094 3096 3098 3100 3103 3105 3107 3108 3109 3111 3112 3113 3117 3119 3121 3122 3117 3113 3116 3121 3125 3129 3131 3133 3136 3139 3141 3142 3144 3145 3145 3145 3146 3148 3150 3152 3153 3151 3152 3151 3150 3151 3152 3152 3152 3152 3152 3153 3153 3155 3157 3159 3161 3163 3165 3166 3168
3103 3101 3101 3100 3099 3098 3094 3092 3091 3090 3089 3088 3088 3087 3085 3084 3083 3082 3080 3081 3083 3081 3079 3081 3081 3081 3086 3087 3088 3089 3089 3091 3092 3094 3096 3099 3100 3102 3104 3105 3107 3108 3111 3115 3116 3117 3116 3110 3110 3116 3122 3126 3129 3131 3132 3134 3137 3139 3140 3142 3142 3142 3143 3145 3146 3148 3151 3151 3150 3150 3149 3147 3148 3150 3150 3150 3149 3150 3151 3151 3152 3154 3156 3158 3160 3163 3164 3166
3099 3097 3096 3095 3095 3095 3091 3089 3088 3086 3086 3085 3084 3083 3082 3081 3080 3079 3076 3075 3077 3077 3076 3076 3076 3077 3081 3083 3084 3084 3084 3087 3089 3089 3092 3094 3096 3098 3100 3101 3103 3106 3108 3109 3109 3110 3109 3107 3109 3116 3121 3124 3126 3128 3130 3132 3134 3135 3137 3138 3137 3138 3142 3144 3145 3146 3148 3149 3148 3148 3146 3144 3145 3147 3147 3147 3148 3149 3149 3149 3150 3151 3152 3154 3158 3160 3161 3163
3094 3093 3092 3091 3091 3091 3088 3086 3085 3082 3082 3082 3081 3080 3079 3078 3078 3076 3073 3070 3070 3073 3074 3072 3071 3073 3076 3078 3078 3079 3080 3083 3085 3086 3088 3089 3092 3095 3096 3098 3101 3103 3104 3104 3106 3106 3105 3105 3108 3113 3118 3121 3123 3125 3127 3129 3130 3131 3132 3133 3133 3136 3139 3142 3143 3144 3146 3147 3146 3147 3145 3141 3142 3144 3143 3144 3146 3146 3147 3147 3147 3148 3149 3151 3154 3156 3158 3161
3090 3089 3088 3086 3087 3087 3085 3083 3082 3080 3079 3079 3078 3077 3076 3075 3075 3073 3071 3067 3064 3067 3069 3067 3067 3068 3071 3071 3072 3075 3077 3077 3080 3084 3084 3085 3089 3091 3093 3097 3099 3099 3100 3103 3105 3105 3104 3105 3107 3111 3114 3117 3120 3121 3122 3125 3127 3127 3127 3129 3132 3135 3138 3140 3141 3143 3145 3145 3144 3147 3145 3138 3137 3141 3140 3141 3143 3144 3145 3145 3145 3146 3147 3148 3150 3153 3156 3158
3086 3084 3083 3082 3081 3083 3083 3081 3080 3078 3076 3076 3075 3074 3073 3072 3073 3071 3070 3066 3061 3062 3062 3061 3062 3063 3064 3065 3067 3072 3073 3072 3077 3080 3080 3083 3087 3089 3091 3093 3094 3096 3098 3102 3105 3102 3101 3104 3106 3109 3111 3114 3116 3117 3119 3122 3126 3125 3124 3127 3131 3133 3137 3139 3140 3142 3143 3142 3142 3145 3145 3137 3133 3135 3137 3139 3140 3141 3142 3142 3142 3144 3144 3145 3147 3149 3152 3155
3083 3080 3079 3078 3076 3076 3078 3077 3077 3075 3074 3074 3072 3071 3071 3071 3071 3070 3069 3066 3059 3057 3057 3056 3057 3058 3059 3060 3062 3067 3068 3068 3072 3074 3075 3079 3083 3086 3088 3088 3090 3092 3095 3101 3102 3095 3096 3101 3104 3106 3109 3111 3112 3113 3115 3120 3123 3122 3121 3126 3129 3132 3135 3136 3139 3140 3140 3140 3139 3139 3143 3139 3130 3128 3133 3136 3137 3137 3138 3139 3140 3141 3142 3143 3145 3146 3149 3152
3080 3077 3074 3075 3073 3071 3072 3073 3073 3072 3072 3071 3069 3069 3069 3069 3070 3069 3071 3068 3058 3054 3054 3054 3054 3054 3055 3056 3057 3061 3063 3064 3066 3068 3072 3077 3078 3081 3083 3084 3087 3089 3091 3095 3094 3089 3093 3098 3099 3102 3105 3107 3107 3109 3113 3117 3120 3120 3121 3125 3128 3131 3133 3135 3138 3138 3138 3139 3135 3134 3139 3137 3127 3123 3127 3132 3133 3134 3134 3136 3138 3138 3140 3141 3143 3144 3146 3149
3078 3074 3070 3071 3071 3069 3069 3068 3069 3069 3069 3068 3067 3066 3067 3068 3068 3068 3072 3068 3056 3052 3053 3052 3052 3053 3053 3054 3055 3057 3059 3060 3061 3063 3068 3071 3073 3076 3078 3081 3085 3087 3089 3091 3090 3088 3091 3096 3098 3101 3102 3102 3105 3109 3112 3116 3118 3119 3122 3124 3127 3130 3132 3134 3136 3137 3138 3134 3128 3130 3134 3133 3123 3119 3123 3126 3128 3129 3131 3133 3135 3136 3138 3139 3140 3142 3143 3146
3075 3071 3067 3066 3067 3068 3067 3066 3065 3065 3066 3065 3064 3064 3065 3066 3066 3068 3070 3061 3052 3051 3051 3051 3051 3051 3051 3052 3053 3054 3055 3057 3059 3060 3062 3065 3069 3073 3076 3080 3084 3086 3087 3089 3090 3089 3090 3095 3097 3099 3099 3101 3105 3108 3110 3114 3117 3119 3122 3124 3127 3128 3130 3132 3133 3136 3136 3126 3122 3126 3130 3132 3123 3113 3116 3120 3122 3126 3129 3131 3133 3134 3135 3136 3138 3140 3141 3143
3072 3069 3064 3062 3062 3063 3064 3064 3062 3062 3062 3062 3061 3062 3062 3063 3064 3065 3059 3051 3049 3050 3048 3049 3049 3049 3050 3050 3051 3052 3053 3055 3056 3057 3058 3061 3064 3068 3071 3075 3079 3083 3086 3086 3086 3087 3089 3092 3093 3094 3097 3101 3104 3106 3108 3112 3115 3118 3120 3123 3126 3127 3129 3130 3131 3133 3128 3119 3119 3123 3126 3130 3120 3106 3109 3115 3118 3123 3126 3128 3130 3132 3133 3134 3136 3138 3139 3141
3069 3066 3062 3060 3058 3058 3059 3060 3059 3058 3058 3058 3058 3059 3060 3061 3060 3054 3048 3046 3048 3047 3046 3047 3047 3047 3048 3049 3049 3050 3051 3053 3053 3055 3056 3057 3059 3060 3062 3065 3068 3074 3077 3078 3081 3084 3086 3088 3089 3092 3095 3098 3100 3103 3105 3108 3112 3114 3117 3120 3122 3124 3126 3126 3125 3124 3119 3116 3119 3120 3122 3123 3111 3103 3107 3111 3114 3119 3122 3125 3127 3129 3130 3132 3133 3135 3137 3138
3066 3063 3060 3058 3056 3055 3055 3055 3056 3055 3054 3055 3055 3055 3057 3058 3051 3044 3044 3046 3046 3043 3044 3045 3045 3045 3046 3047 3047 3048 3049 3050 3051 3053 3054 3056 3057 3057 3060 3063 3064 3067 3069 3072 3078 3081 3084 3086 3087 3089 3091 3092 3095 3097 3098 3101 3105 3109 3111 3114 3115 3117 3120 3119 3118 3117 3115 3115 3116 3119 3122 3115 3104 3103 3105 3107 3111 3115 3118 3122 3124 3126 3128 3129 3131 3133 3134 3135
3064 3060 3057 3056 3054 3052 3051 3052 3052 3052 3051 3051 3052 3053 3053 3050 3043 3040 3043 3044 3041 3041 3042 3042 3042 3044 3044 3044 3045 3045 3046 3047 3048 3050 3052 3053 3055 3055 3058 3061 3063 3066 3068 3072 3074 3075 3078 3078 3078 3080 3083 3085 3089 3091 3093 3097 3101 3104 3106 3110 3110 3109 3111 3112 3112 3113 3113 3113 3114 3119 3118 3106 3100 3103 3102 3105 3109 3111 3114 3118 3121 3123 3125 3126 3128 3130 3131 3132
3063 3058 3054 3053 3052 3050 3048 3048 3049 3048 3048 3048 3048 3049 3047 3043 3041 3041 3041 3040 3038 3038 3039 3040 3041 3042 3042 3042 3043 3043 3044 3045 3045 3047 3049 3050 3052 3053 3056 3059 3061 3065 3068 3069 3069 3069 3072 3070 3070 3075 3079 3081 3085 3089 3092 3097 3100 3101 3104 3107 3106 3104 3106 3109 3110 3110 3112 3112 3112 3112 3106 3098 3098 3101 3101 3104 3107 3108 3112 3114 3117 3120 3121 3124 3125 3126 3128 3130
3061 3057 3054 3051 3050 3048 3046 3045 3045 3045 3045 3045 3045 3044 3042 3040 3041 3040 3038 3037 3036 3035 3036 3038 3039 3039 3040 3040 3040 3041 3042 3042 3043 3045 3047 3049 3050 3052 3054 3056 3058 3061 3063 3063 3064 3065 3068 3068 3069 3074 3077 3079 3083 3086 3089 3093 3095 3097 3100 3100 3099 3101 3106 3110 3109 3109 3112 3110 3107 3104 3099 3096 3099 3098 3098 3102 3104 3105 3109 3110 3114 3117 3118 3121 3122 3123 3125 3126
3057 3055 3052 3049 3047 3046 3044 3043 3042 3042 3042 3042 3041 3039 3038 3039 3039 3037 3035 3035 3035 3035 3036 3037 3037 3037 3037 3036 3037 3038 3039 3041 3042 3043 3045 3046 3048 3049 3051 3052 3054 3056 3057 3059 3060 3061 3065 3067 3068 3072 3075 3077 3081 3084 3087 3090 3091 3093 3094 3094 3097 3103 3107 3109 3109 3108 3109 3107 3101 3098 3096 3097 3099 3095 3093 3098 3100 3102 3105 3107 3110 3113 3116 3118 3118 3120 3122 3123
3053 3051 3049 3047 3045 3043 3042 3041 3039 3038 3038 3038 3037 3036 3036 3036 3036 3035 3033 3033 3034 3035 3035 3036 3035 3035 3034 3034 3034 3035 3037 3038 3039 3041 3042 3043 3043 3045 3047 3048 3050 3051 3052 3054 3058 3059 3062 3065 3067 3069 3072 3075 3078 3082 3085 3086 3088 3090 3090 3091 3095 3099 3100 3103 3105 3104 3104 3103 3097 3094 3093 3092 3092 3090 3091 3095 3098 3100 3102 3104 3107 3109 3112 3114 3116 3118 3120 3121
3049 3047 3046 3045 3044 3041 3039 3038 3037 3036 3035 3035 3035 3034 3033 3032 3033 3033 3032 3032 3033 3034 3034 3035 3034 3033 3033 3033 3033 3033 3034 3036 3037 3038 3038 3039 3039 3041 3042 3044 3046 3047 3047 3050 3055 3057 3060 3064 3065 3066 3070 3073 3074 3076 3078 3080 3084 3087 3088 3089 3092 3094 3094 3095 3097 3097 3098 3099 3095 3092 3090 3084 3082 3085 3090 3093 3096 3098 3100 3102 3104 3106 3108 3111 3113 3116 3117 3119
3047 3045 3043 3042 3041 3039 3037 3036 3035 3033 3033 3033 3033 3032 3031 3030 3030 3031 3031 3031 3031 3032 3033 3033 3032 3031 3031 3031 3031 3032 3032 3033 3035 3035 3035 3036 3037 3038 3039 3040 3042 3043 3044 3048 3053 3056 3058 3061 3063 3064 3067 3068 3068 3069 3072 3075 3078 3080 3083 3085 3087 3090 3091 3092 3093 3093 3094 3094 3093 3091 3086 3079 3079 3082 3086 3090 3093 3096 3098 3099 3101 3103 3105 3108 3110 3113 3115 3116
3045 3042 3041 3040 3039 3037 3035 3034 3033 3032 3032 3032 3031 3030 3029 3029 3029 3029 3029 3029 3030 3031 3031 3031 3031 3030 3029 3030 3030 3031 3031 3032 3033 3033 3034 3034 3035 3036 3037 3038 3040 3041 3043 3046 3050 3052 3055 3057 3059 3062 3063 3063 3063 3066 3070 3072 3073 3074 3077 3079 3081 3085 3087 3089 3089 3089 3091 3091 3090 3089 3082 3076 3078 3082 3084 3088 3091 3093 3096 3097 3098 3100 3102 3105 3107 3110 3112 3114
3043 3041 3039 3038 3036 3035 3033 3032 3031 3031 3031 3031 3030 3029 3029 3028 3027 3027 3028 3028 3028 3029 3029 3029 3029 3029 3028 3029 3029 3029 3030 3031 3032 3032 3032 3033 3033 3034 3035 3036 3038 3039 3041 3043 3046 3048 3050 3053 3057 3059 3060 3061 3063 3066 3069 3070 3071 3072 3073 3074 3077 3080 3082 3083 3082 3082 3086 3087 3087 3089 3082 3074 3075 3080 3083 3087 3090 3091 3094 3095 3095 3097 3099 3101 3104 3107 3109 3111
3042 3040 3038 3036 3035 3033 3032 3031 3031 3030 3030 3030 3029 3028 3028 3027 3026 3026 3026 3027 3027 3027 3028 3028 3028 3027 3027 3027 3027 3028 3029 3030 3030 3030 3031 3031 3032 3033 3034 3035 3036 3037 3039 3041 3042 3045 3048 3050 3054 3057 3059 3061 3063 3066 3067 3067 3068 3069 3069 3071 3073 3074 3076 3079 3078 3079 3083 3083 3085 3088 3081 3072 3074 3079 3082 3085 3088 3090 3092 3093 3094 3095 3096 3099 3101 3103 3106 3108
3041 3040 3038 3036 3034 3032 3031 3030 3030 3030 3029 3029 3028 3027 3027 3026 3025 3025 3024 3024 3024 3025 3026 3026 3025 3025 3025 3025 3026 3026 3028 3029 3029 3029 3029 3030 3031 3032 3033 3034 3035 3036 3037 3038 3039 3042 3044 3047 3050 3054 3057 3059 3062 3063 3062 3062 3063 3063 3065 3067 3069 3071 3074 3076 3077 3078 3078 3077 3080 3082 3074 3069 3074 3078 3081 3085 3087 3088 3091 3092 3093 3094 3095 3097 3098 3101 3103 3105
3040 3038 3037 3035 3033 3032 3031 3030 3029 3029 3028 3027 3027 3026 3025 3024 3023 3023 3023 3022 3022 3024 3024 3023 3023 3024 3024 3024 3025 3025 3026 3028 3028 3027 3028 3028 3029 3031 3032 3033 3034 3034 3035 3036 3037 3039 3042 3043 3046 3048 3049 3050 3051 3052 3052 3055 3057 3058 3060 3063 3065 3068 3070 3072 3074 3075 3072 3072 3075 3073 3068 3069 3073 3076 3080 3084 3086 3087 3089 3090 3091 3093 3094 3095 3097 3099 3101 3103
3039 3036 3035 3034 3033 3032 3031 3031 3030 3029 3028 3027 3026 3025 3024 3023 3022 3022 3022 3021 3021 3022 3022 3021 3022 3022 3023 3023 3024 3024 3025 3026 3027 3026 3026 3027 3028 3030 3031 3032 3033 3033 3034 3035 3036 3038 3040 3041 3042 3042 3042 3043 3044 3045 3048 3051 3053 3054 3057 3059 3061 3064 3067 3069 3070 3067 3067 3071 3070 3066 3068 3070 3071 3074 3079 3082 3084 3086 3088 3089 3090 3091 3092 3094 3095 3097 3098 3100
3039 3037 3034 3033 3033 3033 3032 3031 3030 3029 3028 3027 3026 3025 3024 3022 3021 3020 3020 3020 3020 3020 3020 3020 3020 3021 3021 3022 3023 3023 3024 3025 3025 3025 3025 3026 3027 3028 3030 3031 3032 3032 3033 3034 3035 3037 3038 3039 3040 3040 3040 3041 3042 3044 3047 3048 3049 3051 3053 3055 3058 3060 3062 3064 3063 3062 3065 3068 3063 3062 3069 3069 3067 3072 3077 3079 3083 3085 3086 3088 3089 3090 3091 3092 3093 3095 3096 3098
3039 3037 3036 3034 3033 3032 3032 3030 3030 3029 3028 3027 3025 3024 3023 3023 3021 3019 3019 3019 3019 3018 3018 3018 3019 3020 3020 3020 3021 3022 3023 3023 3024 3024 3024 3025 3026 3027 3029 3030 3030 3031 3032 3033 3034 3036 3037 3038 3038 3039 3039 3040 3041 3044 3045 3045 3046 3048 3050 3051 3054 3056 3057 3057 3059 3060 3062 3061 3059 3062 3066 3064 3064 3070 3074 3077 3081 3083 3084 3086 3088 3089 3090 3090 3091 3092 3093 3095
3038 3037 3036 3035 3033 3032 3031 3030 3029 3028 3027 3026 3025 3024 3023 3022 3021 3020 3019 3018 3018 3018 3018 3017 3018 3019 3019 3019 3020 3020 3020 3021 3022 3023 3023 3024 3025 3026 3028 3029 3030 3030 3032 3033 3033 3035 3036 3037 3037 3037 3038 3039 3040 3042 3043 3043 3044 3044 3046 3047 3049 3051 3052 3053 3054 3056 3057 3057 3059 3061 3062 3061 3063 3067 3070 3074 3078 3079 3081 3084 3085 3086 3087 3088 3089 3089 3090 3092
3039 3037 3035 3034 3033 3032 3031 3030 3029 3028 3027 3026 3025 3024 3023 3022 3021 3020 3019 3018 3018 3018 3017 3016 3017 3017 3018 3018 3018 3018 3019 3020 3020 3020 3021 3023 3024 3025 3027 3027 3028 3029 3030 3032 3033 3034 3035 3036 3036 3036 3037 3038 3039 3040 3041 3041 3041 3041 3042 3043 3045 3047 3048 3048 3049 3052 3053 3055 3057 3059 3059 3057 3060 3065 3068 3072 3075 3076 3078 3080 3081 3083 3083 3084 3085 3086 3088 3089
3039 3037 3035 3033 3032 3031 3030 3029 3029 3028 3026 3025 3024 3023 3022 3021 3020 3019 3018 3017 3017 3017 3016 3016 3016 3016 3017 3017 3017 3018 3018 3018 3018 3019 3020 3022 3023 3024 3025 3026 3027 3028 3029 3031 3032 3033 3034 3035 3035 3036 3036 3036 3037 3039 3038 3037 3037 3037 3037 3039 3041 3042 3043 3044 3046 3048 3050 3053 3055 3056 3055 3054 3058 3063 3067 3068 3071 3073 3074 3075 3077 3078 3079 3081 3082 3083 3085 3086
3038 3036 3035 3033 3031 3030 3030 3029 3028 3027 3026 3025 3024 3022 3021 3020 3019 3018 3017 3016 3016 3016 3016 3015 3016 3016 3016 3016 3016 3016 3017 3017 3018 3018 3019 3020 3021 3022 3023 3025 3026 3026 3027 3029 3030 3032 3033 3034 3034 3036 3036 3035 3036 3037 3037 3037 3036 3034 3033 3035 3037 3038 3040 3042 3043 3045 3048 3050 3052 3052 3052 3054 3057 3061 3063 3065 3067 3069 3070 3072 3073 3074 3076 3077 3078 3080 3081 3082